Location: Newark
(3.1475°N, 101.6933°E)
Time: 04:31:34
(UTC+00:00)

Hubble Space Telescope - Pass Details

Date: 22 October 2019
Orbit: 536 x 540 km, 28.5° (Epoch: 13 November)

Event Time Altitude Azimuth Distance (km) Brightness Sun altitude
Exits shadow 21:41:15 30° 221° (SW) 958 1.7 -19.3°
Maximum altitude 21:43:05 64° 150° (SSE) 591 1.0 -18.9°
Drops below altitude 10° 21:47:09 10° 68° (ENE) 1,775 4.3 -17.9°
Sets 21:49:25 0° 65° (ENE) 2,663 5.2 -17.3°
